[[{"header":{"parameterUnit":"m.s-1","parameterCategory":1,"la1":30.2991,"la2":30.254,"lo1":-89.0895,"lo2":-89.0444,"dy":0.0017,"dx":0.0017,"nx":28,"ny":28,"refTime":"2024-12-19T09:00:00:Z","depth":0,"parameterNumber":2,"parameterNumberName":"U-component_of_WINDS"},"data":[0,0,0,0,0,0,0,0,0,0,0,0,0,0,0,0,0,0,0,0,0,0,0,0,0,0,0,0,0,0,0,0,0,0,0,0,0,0,0,0,0,0,0,0,0,0,0,0,0,0,0,0,0,0,0,0,0,0,-0.0528,-0.0529,0,-0.0597,-0.0597,-0.0598,-0.0591,-0.059,-0.0589,-0.0588,-0.0663,-0.0666,-0.0669,0,0,0,0,0,0,0,0,0,0,0,0,0,-0.0394,-0.0397,-0.0528,-0.0529,-0.053,-0.0597,-0.0597,-0.0598,-0.0591,-0.059,-0.0589,-0.0587,-0.0662,-0.0666,-0.0669,0,0,0,0,0,0,0,0,0,0,0,0,0,-0.0457,-0.0397,-0.0528,-0.0534,-0.0535,-0.0596,-0.0598,-0.0599,-0.0592,-0.059,-0.0588,-0.0587,-0.0661,-0.0665,-0.067,-0.073,0,0,-0.0683,-0.0685,0,0,0,0,0,0,0,0,-0.0453,-0.0462,-0.0532,-0.0534,-0.0535,-0.0584,-0.0578,-0.0643,-0.0592,-0.057,-0.0588,-0.0586,-0.0638,-0.0644,-0.0661,-0.0734,-0.0737,-0.0684,-0.0687,-0.0689,-0.069,0,0,0,0,0,0,0,-0.0449,-0.0459,-0.0555,-0.0533,-0.0535,-0.0535,-0.0542,-0.059,-0.0613,-0.0572,-0.0572,-0.058,-0.0639,-0.0657,-0.0663,-0.0738,-0.0684,-0.0688,-0.0691,-0.0692,-0.0864,-0.0865,0,0,0,0,0,0,-0.0442,-0.0455,-0.0553,-0.0557,-0.0489,-0.0538,-0.0546,-0.057,-0.0612,-0.0617,-0.0581,-0.0579,-0.065,-0.0658,-0.0665,-0.0739,-0.0689,-0.0693,-0.0695,-0.0862,-0.0864,-0.0866,0,0,0,0,0,0,-0.0439,-0.0451,-0.055,-0.0506,-0.0519,-0.0542,-0.0569,-0.0572,-0.059,-0.0619,-0.0623,-0.0595,-0.0649,-0.0659,-0.0714,-0.0742,-0.0695,-0.0699,-0.086,-0.0863,-0.0865,-0.0888,0,0,0,0,0,0,-0.0436,-0.045,-0.0473,-0.0507,-0.0521,-0.0597,-0.0571,-0.0575,-0.0597,-0.0595,-0.0633,-0.0638,-0.0648,-0.0707,-0.0718,-0.0747,-0.0702,-0.0857,-0.0861,-0.0864,-0.0885,-0.0891,-0.0896,0,0,0,0,0,-0.0431,-0.0478,-0.0474,-0.0486,-0.055,-0.0598,-0.0607,-0.0616,-0.06,-0.0623,-0.0641,-0.0637,-0.0736,-0.0713,-0.0725,-0.0756,-0.0856,-0.086,-0.0864,-0.0882,-0.089,-0.0896,0,0,0,0,0,0,-0.0449,-0.0482,-0.0479,-0.0537,-0.0565,-0.0597,-0.0627,-0.0624,-0.0658,-0.0656,-0.0667,-0.0676,-0.0731,-0.0749,-0.0722,-0.0817,-0.0794,-0.0801,-0.0804,-0.0811,-0.0817,-0.0812,-0.0706,0,0,0,0,0,-0.0459,-0.0495,-0.0522,-0.0572,-0.0585,-0.0604,-0.0625,-0.063,-0.066,-0.0672,-0.0694,-0.0724,-0.0762,-0.0787,-0.0824,-0.0886,-0.0895,-0.0914,-0.0919,-0.0924,-0.0931,-0.0965,-0.0974,-0.088,-0.088,-0.088,0,0,-0.0482,-0.0505,-0.0527,-0.0576,-0.0598,-0.0635,-0.0614,-0.0655,-0.0683,-0.0679,-0.0732,-0.0749,-0.0783,-0.0842,-0.0869,-0.0858,-0.0958,-0.0929,-0.0933,-0.0937,-0.097,-0.0979,-0.0987,-0.0882,-0.0882,-0.0882,0,0,-0.0543,-0.0563,-0.0606,-0.0628,-0.066,-0.0672,-0.0682,-0.0714,-0.0725,-0.0777,-0.0775,-0.0809,-0.0874,-0.0898,-0.0919,-0.0987,-0.0985,-0.0999,-0.103,-0.1064,-0.1071,-0.1078,-0.1103,-0.1111,-0.1004,-0.1005,-0.1005,0,-0.0568,-0.0623,-0.0629,-0.067,-0.0692,-0.0687,-0.0731,-0.0752,-0.0796,-0.0812,-0.0799,-0.0879,-0.0902,-0.0967,-0.0983,-0.1,-0.1013,-0.0996,-0.1069,-0.1076,-0.1082,-0.1106,-0.1116,-0.1006,-0.1006,-0.1006,-0.1006,0,-0.0652,-0.0691,-0.0722,-0.0762,-0.0787,-0.083,-0.0843,-0.0868,-0.0869,-0.0883,-0.0936,-0.0963,-0.1004,-0.102,-0.1023,-0.1084,-0.1077,-0.1066,-0.1044,-0.1093,-0.1116,-0.1125,-0.1008,-0.1008,-0.1007,-0.1007,0,0,-0.073,-0.077,-0.0782,-0.0799,-0.0834,-0.0864,-0.0906,-0.0945,-0.0967,-0.0996,-0.1033,-0.1086,-0.1076,-0.11,-0.1105,-0.1134,-0.1187,-0.112,-0.1121,-0.1133,-0.1257,-0.1266,-0.1277,-0.1184,-0.1186,-0.1187,-0.1255,0,-0.0795,-0.0868,-0.0874,-0.094,-0.0976,-0.097,-0.1007,-0.1033,-0.1045,-0.1078,-0.1093,-0.1131,-0.1114,-0.1129,-0.1157,-0.1175,-0.1212,-0.1169,-0.122,-0.1222,-0.1213,-0.1289,-0.1299,-0.1361,-0.1264,-0.1265,-0.1266,0,-0.0882,-0.0911,-0.0981,-0.1009,-0.1024,-0.1057,-0.1093,-0.1124,-0.1153,-0.116,-0.1185,-0.1186,-0.123,-0.1204,-0.1265,-0.1236,-0.1256,-0.1268,-0.127,-0.1277,-0.1248,-0.1299,-0.1382,-0.1392,-0.128,-0.1279,-0.1278,0,-0.0932,-0.099,-0.1039,-0.1054,-0.1088,-0.1111,-0.1126,-0.1153,-0.1176,-0.1207,-0.1222,-0.1258,-0.1279,-0.1308,-0.1318,-0.1298,-0.138,-0.1354,-0.1388,-0.1388,-0.1408,-0.1407,-0.1496,-0.1418,-0.1418,-0.1417,-0.1417,0,-0.1006,-0.1049,-0.1062,-0.1092,-0.114,-0.1146,-0.1194,-0.1208,-0.1232,-0.1265,-0.1263,-0.1295,-0.1306,-0.134,-0.1349,-0.1399,-0.1408,-0.1416,-0.1418,-0.1417,-0.1416,-0.1432,-0.1429,-0.142,-0.1419,-0.1419,-0.1418,0,-0.1072,-0.1082,-0.1135,-0.1161,-0.1169,-0.1203,-0.1227,-0.1257,-0.1267,-0.131,-0.132,-0.1338,-0.1378,-0.1391,-0.1439,-0.1445,-0.1504,-0.1501,-0.1494,-0.1495,-0.1528,-0.1525,-0.1633,-0.1647,-0.1558,-0.1559,-0.1559,0,-0.1119,-0.1151,-0.1181,-0.1202,-0.1218,-0.1253,-0.1275,-0.1282,-0.1306,-0.1339,-0.1365,-0.1404,-0.1436,-0.1499,-0.1518,-0.1554,-0.1554,-0.1589,-0.156,-0.1558,-0.1556,-0.1555,-0.1558,-0.1595,-0.1596,-0.1597,-0.1597,0,-0.1202,-0.1205,-0.1236,-0.1269,-0.1296,-0.1323,-0.1349,-0.1367,-0.1377,-0.1404,-0.1443,-0.1468,-0.1516,-0.1555,-0.1592,-0.1609,-0.1606,-0.1606,-0.1616,-0.1617,-0.1611,-0.1616,-0.1511,-0.1604,-0.1604,-0.1603,-0.1603,-0.1602,-0.1261,-0.129,-0.1314,-0.135,-0.1369,-0.1393,-0.1422,-0.1435,-0.1468,-0.1507,-0.1508,-0.1551,-0.1578,-0.1627,-0.1646,-0.168,-0.1671,-0.1685,-0.1689,-0.1693,-0.1696,-0.1604,-0.1687,-0.1687,-0.1687,-0.1686,-0.1686,0,-0.1345,-0.136,-0.1392,-0.1427,-0.1455,-0.1446,-0.1474,-0.1498,-0.1536,-0.156,-0.159,-0.1636,-0.1673,-0.1693,-0.173,-0.1754,-0.1753,-0.1763,-0.1763,-0.1767,-0.1702,-0.169,-0.1763,-0.1763,-0.1763,-0.1763,-0.1763,-0.1763,-0.1392,-0.144,-0.1446,-0.1503,-0.1518,-0.1559,-0.1576,-0.1598,-0.1617,-0.1667,-0.1697,-0.1709,-0.1732,-0.177,-0.1804,-0.1809,-0.1824,-0.1835,-0.184,-0.1779,-0.1771,-0.1764,-0.1753,-0.1838,-0.1838,-0.1902,-0.1902,-0.1903]},{"header":{"parameterUnit":"m.s-1","parameterCategory":1,"la1":30.2991,"la2":30.254,"lo1":-89.0895,"lo2":-89.0444,"dy":0.0017,"dx":0.0017,"nx":28,"ny":28,"refTime":"2024-12-19T09:00:00:Z","depth":0,"parameterNumber":3,"parameterNumberName":"V-component_of_WINDS"},"data":[0,0,0,0,0,0,0,0,0,0,0,0,0,0,0,0,0,0,0,0,0,0,0,0,0,0,0,0,0,0,0,0,0,0,0,0,0,0,0,0,0,0,0,0,0,0,0,0,0,0,0,0,0,0,0,0,0,0,-8.0778,-8.078,0,-8.0911,-8.0913,-8.0914,-8.0811,-8.0807,-8.0802,-8.0798,-8.0929,-8.0937,-8.0944,0,0,0,0,0,0,0,0,0,0,0,0,0,-8.0429,-8.0436,-8.0778,-8.078,-8.0782,-8.0911,-8.0913,-8.0915,-8.0812,-8.0806,-8.0801,-8.0796,-8.0927,-8.0936,-8.0945,0,0,0,0,0,0,0,0,0,0,0,0,0,-8.0574,-8.0439,-8.0778,-8.0746,-8.0744,-8.0911,-8.0913,-8.0915,-8.0813,-8.0806,-8.08,-8.0793,-8.0924,-8.0935,-8.0946,-8.115,0,0,-8.0981,-8.0986,0,0,0,0,0,0,0,0,-8.0566,-8.0586,-8.0749,-8.0748,-8.0747,-8.0838,-8.0838,-8.0994,-8.0815,-8.0787,-8.0798,-8.079,-8.0904,-8.0917,-8.0956,-8.1156,-8.1162,-8.0982,-8.0989,-8.0994,-8.0997,0,0,0,0,0,0,0,-8.0556,-8.058,-8.0831,-8.0751,-8.075,-8.0723,-8.0736,-8.0867,-8.0881,-8.0789,-8.0782,-8.0799,-8.0902,-8.0945,-8.0958,-8.1164,-8.0982,-8.0992,-8.0999,-8.1004,-8.1536,-8.1543,0,0,0,0,0,0,-8.055,-8.0573,-8.0826,-8.0835,-8.0638,-8.0735,-8.075,-8.0815,-8.0879,-8.0883,-8.0805,-8.0794,-8.0929,-8.0945,-8.0963,-8.1205,-8.0994,-8.1005,-8.1011,-8.1529,-8.1538,-8.1546,0,0,0,0,0,0,-8.0542,-8.0573,-8.0821,-8.0702,-8.0731,-8.0748,-8.0823,-8.0822,-8.0865,-8.0891,-8.0893,-8.0847,-8.0924,-8.0946,-8.1104,-8.1208,-8.101,-8.102,-8.152,-8.1532,-8.1542,-8.1691,0,0,0,0,0,0,-8.0533,-8.0571,-8.065,-8.0704,-8.0738,-8.0963,-8.0829,-8.0829,-8.0885,-8.0872,-8.0931,-8.0934,-8.0921,-8.1088,-8.1116,-8.122,-8.1029,-8.1511,-8.1525,-8.1538,-8.1677,-8.1706,-8.1731,0,0,0,0,0,-8.0521,-8.0686,-8.0655,-8.0686,-8.0837,-8.0969,-8.0988,-8.0971,-8.0894,-8.0973,-8.0989,-8.0932,-8.1192,-8.1105,-8.1135,-8.1245,-8.1504,-8.1521,-8.1537,-8.1665,-8.17,-8.173,0,0,0,0,0,0,-8.0642,-8.0693,-8.0658,-8.0847,-8.0905,-8.0951,-8.105,-8.1009,-8.1088,-8.1073,-8.1046,-8.106,-8.1226,-8.1251,-8.1153,-8.1445,-8.1336,-8.1359,-8.1423,-8.1456,-8.1482,-8.1473,-8.1039,0,0,0,0,0,-8.0691,-8.0795,-8.0833,-8.0995,-8.1026,-8.1034,-8.109,-8.1072,-8.113,-8.1154,-8.1182,-8.1239,-8.1333,-8.1396,-8.1484,-8.168,-8.1691,-8.177,-8.1797,-8.1819,-8.1839,-8.1944,-8.1979,-8.1599,-8.1599,-8.1599,0,0,-8.0792,-8.0833,-8.09,-8.1021,-8.1063,-8.117,-8.1055,-8.1173,-8.1251,-8.1171,-8.1322,-8.1345,-8.1407,-8.1585,-8.1664,-8.161,-8.1946,-8.184,-8.1857,-8.1865,-8.1964,-8.2,-8.2032,-8.161,-8.1608,-8.1607,0,0,-8.1032,-8.1074,-8.1214,-8.1259,-8.1326,-8.1329,-8.1363,-8.1417,-8.1429,-8.1581,-8.1522,-8.1614,-8.1778,-8.1824,-8.1869,-8.2126,-8.2076,-8.2156,-8.2295,-8.2398,-8.2427,-8.2454,-8.2545,-8.2578,-8.2176,-8.2176,-8.2176,0,-8.115,-8.131,-8.129,-8.1413,-8.1467,-8.1401,-8.1541,-8.1585,-8.1677,-8.1715,-8.1654,-8.1857,-8.1894,-8.2082,-8.2144,-8.2183,-8.2219,-8.2149,-8.2425,-8.2451,-8.2476,-8.2562,-8.2597,-8.2185,-8.2184,-8.2183,-8.2182,0,-8.1451,-8.1563,-8.1668,-8.176,-8.1825,-8.1957,-8.1955,-8.2023,-8.1999,-8.2009,-8.2163,-8.2205,-8.2301,-8.2344,-8.2321,-8.2528,-8.2492,-8.2429,-8.2319,-8.2521,-8.2602,-8.2635,-8.2199,-8.2195,-8.2192,-8.219,0,0,-8.1771,-8.1851,-8.1889,-8.193,-8.1999,-8.2084,-8.2211,-8.2306,-8.2365,-8.243,-8.2535,-8.2675,-8.2617,-8.2668,-8.2649,-8.2739,-8.294,-8.2664,-8.2665,-8.2714,-8.3169,-8.3217,-8.3256,-8.2907,-8.2913,-8.2918,-8.3164,0,-8.2014,-8.2238,-8.2223,-8.2433,-8.2536,-8.2474,-8.2584,-8.2637,-8.265,-8.2737,-8.2749,-8.2849,-8.2764,-8.2795,-8.2881,-8.2897,-8.3031,-8.2879,-8.3003,-8.3008,-8.299,-8.3298,-8.3349,-8.3579,-8.3196,-8.3201,-8.3205,0,-8.2328,-8.2406,-8.2626,-8.2679,-8.2722,-8.2822,-8.2907,-8.2992,-8.305,-8.3053,-8.311,-8.3077,-8.3203,-8.309,-8.3263,-8.3161,-8.321,-8.3225,-8.3234,-8.3245,-8.3119,-8.3317,-8.3652,-8.3687,-8.3255,-8.3251,-8.3247,0,-8.2539,-8.2698,-8.2851,-8.2888,-8.2953,-8.3025,-8.3055,-8.3107,-8.3165,-8.3239,-8.3276,-8.3363,-8.3411,-8.3479,-8.3468,-8.3387,-8.3645,-8.3531,-8.3649,-8.3649,-8.3706,-8.3702,-8.4054,-8.3738,-8.3738,-8.3737,-8.3736,0,-8.2812,-8.2949,-8.2947,-8.3041,-8.3192,-8.3173,-8.3323,-8.3345,-8.3391,-8.3487,-8.3438,-8.3528,-8.351,-8.3599,-8.3592,-8.3736,-8.3758,-8.3762,-8.3758,-8.3767,-8.3766,-8.3799,-8.3782,-8.3746,-8.3744,-8.3743,-8.3741,0,-8.3073,-8.3078,-8.324,-8.3289,-8.3304,-8.3414,-8.3455,-8.3543,-8.3551,-8.3672,-8.37,-8.3712,-8.3815,-8.3812,-8.3928,-8.3922,-8.41,-8.4077,-8.4081,-8.4076,-8.4194,-8.4183,-8.4579,-8.4629,-8.4281,-8.4285,-8.4287,0,-8.3247,-8.3352,-8.3413,-8.3474,-8.351,-8.3609,-8.3668,-8.3653,-8.3716,-8.379,-8.3869,-8.3967,-8.4045,-8.4212,-8.423,-8.4319,-8.4298,-8.443,-8.4311,-8.4316,-8.4299,-8.4294,-8.4303,-8.4454,-8.4458,-8.4461,-8.4463,0,-8.3556,-8.3553,-8.3641,-8.3731,-8.3803,-8.3872,-8.3935,-8.3988,-8.3979,-8.4052,-8.4158,-8.4219,-8.4338,-8.4436,-8.4521,-8.4549,-8.4505,-8.4501,-8.4533,-8.4542,-8.454,-8.4543,-8.4145,-8.4492,-8.4489,-8.4487,-8.4486,-8.4484,-8.3779,-8.3868,-8.3925,-8.4025,-8.4071,-8.4132,-8.4217,-8.4236,-8.4324,-8.4422,-8.4406,-8.4524,-8.4578,-8.4688,-8.4724,-8.4815,-8.4768,-8.4814,-8.4826,-8.4837,-8.4851,-8.4526,-8.483,-8.4829,-8.4829,-8.4828,-8.4827,0,-8.4084,-8.4118,-8.421,-8.4301,-8.4379,-8.4332,-8.4399,-8.4467,-8.4573,-8.4628,-8.4706,-8.4827,-8.4921,-8.4947,-8.5038,-8.5105,-8.5087,-8.513,-8.5124,-8.5131,-8.4888,-8.4851,-8.5143,-8.5143,-8.5143,-8.5143,-8.5142,-8.5142,-8.4252,-8.4402,-8.4405,-8.4577,-8.4608,-8.4725,-8.4768,-8.4823,-8.4866,-8.5004,-8.5084,-8.51,-8.5143,-8.5236,-8.5321,-8.5325,-8.5361,-8.5412,-8.5408,-8.518,-8.5149,-8.5119,-8.5084,-8.542,-8.542,-8.5644,-8.5646,-8.5648]}]]